TimeMDT,TemperatureF,Dew PointF,Humidity,Sea Level PressureIn,VisibilityMPH,Wind Direction,Wind SpeedMPH,Gust SpeedMPH,PrecipitationIn,Events,Conditions,WindDirDegrees,DateUTC
12:53 AM,39.0,21.0,49,29.89,10.0,Calm,Calm,-,N/A,,Clear,0,2012-10-24 06:53:00
1:53 AM,37.9,21.0,51,29.89,10.0,ENE,3.5,-,N/A,,Clear,60,2012-10-24 07:53:00
2:53 AM,36.0,19.9,52,29.88,10.0,NNE,3.5,-,N/A,,Clear,30,2012-10-24 08:53:00
3:53 AM,37.9,23.0,55,29.88,10.0,Calm,Calm,-,N/A,,Clear,0,2012-10-24 09:53:00
4:53 AM,35.1,21.0,57,29.88,10.0,Calm,Calm,-,N/A,,Clear,0,2012-10-24 10:53:00
5:53 AM,36.0,21.9,57,29.88,10.0,ENE,4.6,-,N/A,,Clear,70,2012-10-24 11:53:00
6:53 AM,34.0,23.0,64,29.91,10.0,Calm,Calm,-,N/A,,Clear,0,2012-10-24 12:53:00
7:53 AM,35.1,24.1,64,29.95,10.0,North,5.8,-,N/A,,Clear,360,2012-10-24 13:53:00
8:53 AM,43.0,26.1,51,29.92,10.0,ESE,4.6,-,N/A,,Clear,110,2012-10-24 14:53:00
10:53 AM,55.9,26.1,32,29.85,10.0,ENE,6.9,-,N/A,,Clear,70,2012-10-24 16:53:00
11:53 AM,59.0,24.1,26,29.82,10.0,SW,10.4,16.1,N/A,,Clear,230,2012-10-24 17:53:00
12:53 PM,63.0,21.9,21,29.78,10.0,SSW,9.2,21.9,N/A,,Clear,200,2012-10-24 18:53:00
1:53 PM,64.0,19.0,18,29.74,10.0,SW,10.4,25.3,N/A,,Clear,230,2012-10-24 19:53:00
2:53 PM,66.0,16.0,15,29.70,10.0,WSW,26.5,33.4,N/A,,Clear,250,2012-10-24 20:53:00
3:53 PM,64.0,14.0,14,29.70,9.0,WSW,26.5,43.7,N/A,,Partly Cloudy,240,2012-10-24 21:53:00
4:53 PM,63.0,10.9,13,29.69,9.0,SW,26.5,41.4,N/A,,Clear,230,2012-10-24 22:53:00
5:53 PM,60.1,7.0,12,29.70,10.0,WSW,29.9,39.1,N/A,,Clear,250,2012-10-24 23:53:00
6:53 PM,55.9,10.0,16,29.75,10.0,WNW,21.9,29.9,N/A,,Clear,290,2012-10-25 00:53:00
7:53 PM,51.1,18.0,27,29.82,10.0,WNW,18.4,24.2,N/A,,Clear,290,2012-10-25 01:53:00
8:53 PM,48.9,18.0,29,29.82,10.0,WNW,20.7,32.2,N/A,,Clear,300,2012-10-25 02:53:00
10:53 PM,43.0,15.1,32,29.86,10.0,WNW,8.1,-,N/A,,Clear,290,2012-10-25 04:53:00
11:53 PM,42.1,12.0,29,29.88,10.0,WNW,11.5,-,N/A,,Clear,290,2012-10-25 05:53:00